Regional Weather Roundup
Issued by NWS Pendleton, OR

Home | Current Version | Previous Version | Text Only | Print | Product List | Glossary On
Versions: 1 2 3 4 5 6 7 8 9 10 11 12 13 14 15 16 17 18 19 20 21 22 23 24 25 26 27 28 29 30 31 32 33 34 35 36 37 38 39 40 41 42 43 44 45 46 47 48 49 50
000
ASUS46 KPDT 201625
RWRPDT
PENDLETON REGIONAL WEATHER ROUNDUP
NATIONAL WEATHER SERVICE PENDLETON OREGON
800 AM PST SAT DEC 20 2014

NOTE: FAIR INDICATES FEW OR NO CLOUDS BELOW 12,000 FEET WITH NO
SIGNIFICANT WEATHER AND/OR OBSTRUCTIONS TO VISIBILITY.

# INDICATES UNOFFICIAL STATION AND DATA

WAZ520-201710-
EAST SLOPES OF WASHINGTON CASCADES

CITY            SKY/WX      TMP DP  RH  WIND    PRES   REMARKS
#BULLFROG 2SW   N/A         36  36  100 S2      27.34F
#BUMPING DAM    N/A         31  N/A N/A E7      N/A
#CLE ELUM HS    N/A         35  34  96  S1      29.72F
#CLE ELUM 2NW   N/A         34  34  100 E2      N/A
#CLE ELUM LAKE  N/A         32  31  96  CALM    29.78F
#GLENWOOD       N/A         36  35  96  CALM    29.80F
#MANASTASH CYN  N/A         32  30  92  CALM    29.72F
#NELSON         N/A         33  32  96  CALM    29.80F
#NELSON 3SW     N/A         31  30  96  CALM    29.98F
#NILE           N/A         34  34  100 CALM    29.05F
#RONALD 2NW     N/A         34  32  92  CALM    29.61S
#SNOWDEN        N/A         38  36  92  CALM    N/A
#TEANAWAY 4NE   N/A         37  37  100 SE1     N/A
#TROUT LAKE HS  N/A         34  34  100 W2      N/A
#TROUT LAKE 1NE N/A         32  31  96  CALM    29.81F
$$

WAZ521-201710-
SIMCOE HIGHLANDS

CITY            SKY/WX      TMP DP  RH  WIND    PRES   REMARKS
#BICKLETON HS   N/A         37  36  96  SW7     34.25S
#CENTERVILLE 4W N/A         39  38  96  E5      29.50F
#CENTERVILLE 1SWN/A         38  36  92  CALM    29.78F
#GOLDENDALE     N/A         39  39  100 E1      N/A
#GOLDENDALE 1NE N/A         39  39  100 N2      N/A
#GOLDENDALE 1S  N/A         39  38  96  E3      29.74F
#GOLDENDALE 5WNWN/A         41  39  93  CALM    29.77F
#GOODNOE HILLS  N/A         39  37  92  NE3     N/A
#LYLE 6NE       N/A         38  37  96  CALM    29.76F
$$

WAZ026-201710-
KITTITAS VALLEY

CITY            SKY/WX      TMP DP  RH  WIND    PRES   REMARKS
ELLENSBURG AP   RAIN        40  36  85  E8      29.75F FOG
#ELLENSBURG CWU N/A         37  36  96  E5      29.75F
#ELLENSBURG 3NE N/A         37  35  92  SE3     29.77F
#ELLENSBURG     N/A         39  39  100 NE3     N/A
#ELLENSBURG 1E  N/A         35  34  96  CALM    N/A
#KITTITAS 4N    N/A         38  35  89  CALM    29.81S
#KITTITAS 3S    N/A         32  31  96  CALM    29.79F
#THORP 6N       N/A         35  34  96  E14     29.81F WCI 26
$$

WAZ027-201710-
YAKIMA VALLEY

CITY            SKY/WX      TMP DP  RH  WIND    PRES   REMARKS
YAKIMA AIRPORT  LGT RAIN    38  36  92  CALM    29.78F FOG
YAKIMA-VAGABOND LGT RAIN    36  36  100 VRB1    29.77F FOG
#DONALD 2NE     N/A         38  37  96  CALM    28.63F
#GRANDVIEW      N/A         42  39  89  CALM    29.82F
#MABTON         N/A         42  40  93  CALM    29.80F
#MOXEE 2E       N/A         41  36  82  CALM    29.89R
#NACHES 2SW     N/A         38  37  96  CALM    29.79S
#OUTLOOK DOT    N/A         N/A N/A N/A W2      N/A
#SELAH 8E       N/A         41  40  96  S9      N/A
#TERRACE HTS    N/A         37  36  96  CALM    29.78F
#WAPATO 4NE     N/A         38  37  96  CALM    28.63F
#WEST VALLEY    N/A         38  37  96  CALM    29.80F
#W YAKIMA       N/A         38  37  96  CALM    29.81F
#WHITE SWAN 5E  N/A         36  35  96  CALM    29.81F
#WILEY CITY 3W  N/A         36  33  89  CALM    29.81F
$$

WAZ028-201710-
LOWER COLUMBIA BASIN...WASHINGTON

CITY            SKY/WX      TMP DP  RH  WIND    PRES   REMARKS
PASCO           LGT RAIN    39  39  100 SW5     29.83F
PROSSER AWOS    N/A         41  41  100 E7      29.82F
RICHLAND AWOS   LGT DRIZZLE 37  N/A N/A W3      29.83F
#BASIN CITY 5SW N/A         40  38  92  CALM    29.82F
#CONNELL 5N     N/A         40  38  92  NE2     29.84F
#CONNELL 5NW    N/A         40  38  92  E2      29.80F
#ELTOPIA        N/A         44  42  93  CALM    29.79F
#ELTOPIA 6NW    N/A         41  40  96  E7      28.78F
#KAHLOTUS       N/A         38  36  92  S12     29.85F WCI 30
#KENNEWICK      N/A         36  36  100 S2      27.34F
#KENNEWICK 3S   N/A         39  37  92  CALM    29.83F
#PASCO-BROADMOORN/A         39  37  92  CALM    29.74F
#PATERSON       N/A         41  39  93  CALM    29.81F
#PROSSER        N/A         42  39  89  S1      29.82F
#SAGEMOOR 2W    N/A         42  40  93  CALM    29.67F
#TOUCHET 2S     N/A         40  39  96  CALM    29.82F
#WEST PASCO     N/A         39  36  89  CALM    29.82F
$$

WAZ029-201710-
FOOTHILLS OF THE BLUES...WASHINGTON

CITY            SKY/WX      TMP DP  RH  WIND    PRES   REMARKS
WALLA WALLA AP  MOCLDY      51  38  61  S15     29.81F
#COLLEGE PLACE  N/A         47  34  60  SE10    29.83F
#DAYTON SCHOOL  N/A         44  36  73  E6      29.85F
#LOWDEN 2SE     N/A         50  42  74  SE6     29.78F
#PLEASANT VIEW 1N/A         38  37  96  CALM    29.90F
#PRESCOTT       N/A         40  39  96  CALM    29.84F
#SUDBURY        N/A         47  N/A N/A CALM    N/A
#WHITMAN COLLEGEN/A         50  40  68  SE6     29.87F
#WAITSBURG 5S   N/A         44  39  82  SE15    29.93F WCI 37
#WALLA WALLA 5E N/A         50  39  66  S14     N/A
#WALLA WALLA U  N/A         51  42  71  S7      29.83F
#WHITMAN MISSIONN/A         49  42  77  CALM    29.83F
$$

WAZ030-201710-
BLUE MOUNTAINS...WASHINGTON

CITY            SKY/WX      TMP DP  RH  WIND    PRES   REMARKS
#DIXIE 5SE      N/A         41  34  76  S16G26  29.74F WCI 33
$$

ORZ009-041-WAZ024-201710-
COLUMBIA RIVER GORGE

CITY            SKY/WX      TMP DP  RH  WIND    PRES   REMARKS
HOOD RIVER AP   LGT RAIN    39  39  100 N3      29.79F
THE DALLES AP   CLOUDY      41  40  96  CALM    29.79F FOG
#ARLINGTON AIRPON/A         38  37  96  CALM    29.97F
#ARLINGTON HS   N/A         40  38  92  S2      29.71F
#CELILO DOT     N/A         42  39  89  NE7     N/A
#LYLE           N/A         42  41  96  CALM    29.81F
#MARYHILL 2W    N/A         41  41  100 N1      N/A
#MOSIER 1S      N/A         39  39  100 CALM    29.79F
#MURDOCK        N/A         42  42  100 NW1     29.82F
#RUFUS DOT      N/A         40  38  92  SE7     N/A

$$

ORZ510-201710-
NORTH CENTRAL OREGON

CITY            SKY/WX      TMP DP  RH  WIND    PRES   REMARKS
#CHENOWITH 1W   N/A         37  37  100 E8      N/A
#COW CYN RST AREN/A         42  36  79  S12     N/A    WCI 35
#DUFUR 9E       N/A         41  39  93  S15     29.83F WCI 33
#GRASS VALLEY   N/A         40  40  100 S2      N/A
#GRASS VALLEY 1SN/A         40  39  96  S2      29.82F
#KENT DOT       N/A         41  33  73  SE14    N/A    WCI 33
#MAUPIN SCHOOL  N/A         39  37  92  S2      29.78F
#MORO SCHOOL    N/A         37  37  100 CALM    29.78F
#SHANIKO 5WSW   N/A         39  32  76  S22     N/A    WCI 29
#SHANIKO 4NW    N/A         38  35  89  S25G36  29.70F WCI 27
#TYGH VALLEY 2NEN/A         38  37  96  CALM    29.79F
#WAPANITIA AIRPON/A         37  36  96  CALM    29.80F
#WASCO 5NE      N/A         37  36  96  CALM    29.81F
$$

ORZ511-201710-
CENTRAL OREGON

CITY            SKY/WX      TMP DP  RH  WIND    PRES   REMARKS
BEND AIRPORT    PTCLDY      41  36  82  S9      29.83S
MADRAS AIRPORT  CLOUDY      43  37  79  S9      29.78F
PRINEVILLE AP   CLOUDY      43  36  76  S7      29.83F
REDMOND AIRPORT CLOUDY      43  35  73  S15G25  29.81R WCI 36
#BEND 1SW       N/A         36  35  96  SW5     N/A
#BEND-AWBREY    N/A         37  36  96  SW20G30 29.82F WCI 27
#BEND-KIM LN    N/A         38  36  92  SW7     29.75F
#CROOKED RVR RANN/A         44  37  76  W8      29.80F
#CULVER         N/A         44  36  73  E12G25  29.73F WCI 38
#LAKE BILLY CHINN/A         42  29  60  S1      29.89F
#POWELL BUTTE 3EN/A         N/A N/A N/A S5      N/A
#POWELL BUTTE   N/A         44  35  70  S1      29.47F
#PRINEVILLE 3N  N/A         43  38  82  SE6     29.81F
#WARM SPRINGS   N/A         38  37  96  CALM    29.76F


ORZ509-201710-
EAST SLOPES OF OREGON CASCADES

CITY            SKY/WX      TMP DP  RH  WIND    PRES   REMARKS
#BLUE BOX PASS  N/A         32  -16 11  CALM    N/A
#BLACK BUTTE RNCN/A         38  38  100 CALM    29.83F
#CAMP SHERMAN   N/A         35  33  92  CALM    29.83S
#LA PINE DOT    N/A         36  34  92  S1      N/A
#LA PINE 4NW    N/A         35  32  89  W1      29.96S
#LAVA BUTTE DOT N/A         34  32  92  SE6     N/A
#MT BACHELOR-MIDN/A         27  26  96  NE36G54 N/A    WCI 10
#SISTERS AIRPOR N/A         37  37  100 E2      30.17S
#SISTERS ODOT   N/A         37  N/A N/A NE1     N/A
#SISTERS 3N     N/A         37  35  92  CALM    29.81F
#SUNRIVER       N/A         36  35  96  S3      29.80R
#TUMALO 3W      N/A         41  36  82  S7      29.70S
#WANOGA BUTTE D N/A         30  29  96  W8      N/A

$$

ORZ044-201710-
LOWER COLUMBIA BASIN...OREGON

CITY            SKY/WX      TMP DP  RH  WIND    PRES   REMARKS
HERMISTON       LGT RAIN    40  38  92  W3      29.80F
#BOARDMAN 3W    N/A         39  39  100 CALM    29.56S
#BOARDMAN 8SW   N/A         39  37  92  CALM    29.81F
#ECHO 8SW       N/A         39  36  89  CALM    29.77F
#IONE SCHOOL    N/A         47  33  58  NE2     29.79F
#IRRIGON 4NW    N/A         38  38  100 S3      N/A
#UMATILLA SCHOOLN/A         41  41  100 CALM    29.84S
#UMATILLA       N/A         45  41  86  CALM    29.79F
$$

ORZ507-201710-
NORTHERN FOOTHILLS OF THE BLUES

CITY            SKY/WX      TMP DP  RH  WIND    PRES   REMARKS
PENDLETON AIRPT CLOUDY      45  37  73  S8      29.80F
#ADAMS 3WNW     N/A         44  40  86  E1      29.83F
#ATHENA         N/A         45  39  79  SE3     29.85F
#HELIX SCHOOL   N/A         42  40  93  SE9     29.84F
#HELIX 3N       N/A         42  39  89  SE15    29.79F WCI 34
#HELIX 6SW      N/A         42  40  93  E7      29.80F
#HOLDMAN 5SE    N/A         45  40  82  S3      29.81F
#HOLDMAN 6E     N/A         43  40  89  W2      29.65F
#M-F GROVE ELEM N/A         49  37  63  SE7     29.80F
#M-FREEWATER 5SEN/A         48  39  71  E13     29.83F WCI 43
#PENDLETON DNTN N/A         41  40  96  CALM    28.61F
#PDT AQUATIC CTRN/A         45  44  96  CALM    29.79F
#PENDLETON 5NE  N/A         43  40  89  CALM    29.78F
#PENDLETON 7NW  N/A         46  39  76  S7      26.70S
#PILOT ROCK     N/A         50  34  54  SE15G26 29.82F
#TUTUILLA       N/A         48  39  71  S6      29.83F
#UMAPINE 2E     N/A         50  42  74  S8      29.78F
#WESTON SCHOOL  N/A         45  36  70  S9G26   29.80F

$$

ORZ508-201710-
SOUTHERN FOOTHILLS OF THE BLUES

CITY            SKY/WX      TMP DP  RH  WIND    PRES   REMARKS
LEXINGTON       PTCLDY      46  39  76  S12     29.79F WCI 40
#AJAX           N/A         42  33  70  S6      29.71F
#CONDON SCHOOL  N/A         42  38  86  CALM    29.74F
#CONDON 5W      N/A         40  35  82  SE21    29.72F WCI 30
#FOSSIL SCHOOL  N/A         42  38  86  E1      29.78F
#HEPPNER EOC    N/A         45  38  76  SE7     29.77F
#HEPPNER 4NE    N/A         43  38  82  S2      29.82F
#LEXINGTON 2SE  N/A         48  40  74  SE10    29.75S
#MIKKALO        N/A         38  35  89  CALM    29.77F
#OLEX 4N        N/A         37  36  96  CALM    29.78F
#RUGGS 5NE      N/A         42  37  82  VRB8    29.94S
#RUGGS 2SW      N/A         41  36  82  S7      29.84F

$$

ORZ502-503-201710-
BLUE MOUNTAINS

CITY            SKY/WX      TMP DP  RH  WIND    PRES   REMARKS
MEACHAM         LGT RAIN    35  33  92  CALM    29.83F
#BATTLE MTN DOT N/A         33  32  96  S14     N/A    WCI 23
#HARDMAN 10S    N/A         32  31  96  SE3     30.01F
#HEPPNER 15SE   N/A         36  33  89  N5      29.70S
#LADD CYN SMT   N/A         36  32  85  SE15    N/A    WCI 27
#LADD CREEK ODOTN/A         38  35  89  S8      N/A
#LONG CREEK HS  N/A         40  38  92  S22G32  29.76F WCI 30
#N POWDER DOT   N/A         38  35  89  SE16    N/A    WCI 29
#PIKES PEAK     N/A         41  34  76  S22G40  27.99S WCI 31
#TROY SCHOOL    N/A         35  34  96  SW1     29.81F
#UKIAH          N/A         32  31  96  CALM    29.97F
#WESTON 4E      N/A         38  36  92  E12     29.82F WCI 30
$$

ORZ505-201710-
JOHN DAY BASIN

CITY            SKY/WX      TMP DP  RH  WIND    PRES   REMARKS
JOHN DAY        CLOUDY      42  35  76  SE18G24 29.87F WCI 34
#JOHN DAY KJDY  N/A         40  40  100 CALM    29.97R
#DAYVILLE SCHOOLN/A         32  29  89  CALM    30.16S
#MONUMENT HS    N/A         37  35  92  CALM    29.87F
#MT. VERNON 5SE N/A         37  34  89  E5      29.83F
#WINLOCK        N/A         39  38  96  N2      29.91F
$$

ORZ506-201710-
OCHOCO AND JOHN DAY HIGHLANDS

CITY            SKY/WX      TMP DP  RH  WIND    PRES   REMARKS
#BUCK CREEK DOT N/A         39  39  100 CALM    N/A
#HORSE RIDGE DO N/A         40  32  73  SE10    N/A
#KEYES SMT DOT  N/A         37  33  85  E7      N/A
#PRAIRIE CITY   N/A         33  29  85  CALM    30.02F
#SENECA         N/A         34  N/A N/A S6      N/A
#SENECA 9NW     N/A         32  31  96  CALM    29.97
$$

ORZ049-201710-
GRANDE RONDE VALLEY

CITY            SKY/WX      TMP DP  RH  WIND    PRES   REMARKS
LA GRANDE       CLOUDY      43  30  60  S10     29.86F
#COVE           N/A         42  36  79  SE1     30.03S
#COVE SCHOOL    N/A         43  37  79  E9      29.85S
#COVE 6NW       N/A         40  35  82  SE1     29.96F
#ELGIN 3N       N/A         39  34  82  S6      29.60F
#ELGIN 1E       N/A         40  36  85  CALM    N/A
#IMBLER SCHOOL  N/A         39  36  89  S7      29.84F
#ISLAND CITY 4N N/A         47  46  96  CALM    29.70S
#LADD CYN DOT   N/A         40  34  79  S23G33  N/A    WCI 30
#UNION 1S       N/A         41  36  82  E13     29.83F WCI 34
$$

ORZ050-201710-
WALLOWA COUNTY

CITY            SKY/WX      TMP DP  RH  WIND    PRES   REMARKS
JOSEPH AIRPORT  CLOUDY      30  28  92  CALM    29.86F
#ENTERPRISE AP  N/A         29  26  88  CALM    29.81F
#ENTERPRISE HS  N/A         29  27  92  CALM    29.90S
#IMNAHA SCHOOL  N/A         34  32  92  N1      29.89F
#IMNAHA 10S     N/A         43  33  67  SW7     29.88S
#JOSEPH 3N      N/A         27  25  92  CALM    29.89S
#JOSEPH 3W      N/A         31  28  88  CALM    29.70S
#LOSTINE        N/A         30  29  96  CALM    29.77F
#MT HOWARD 8000 N/A         25  22  88  S9G26   29.75S
#PROMISE 1S     N/A         31  30  96  CALM    30.06S
#SHEEP RDG 7000 N/A         28  25  88  CALM    29.93F
#WALLOWA SCHOOL N/A         29  28  96  CALM    30.95S



$$



USA.gov is the U.S. government's official web portal to all federal, state and local government web resources and services.